Regional Weather Roundup
Issued by NWS

Home | Current Version | Previous Version | Text Only | Print | Product List | Glossary On
Versions: 1 2 3 4 5 6 7 8 9 10 11 12 13 14 15 16 17 18 19 20 21 22 23 24 25 26 27 28 29 30 31 32 33 34 35 36 37 38 39 40 41 42 43 44 45 46 47 48 49 50
000
ASUS45 KTFX 080310
RWRMT
MONTANA REGIONAL WEATHER ROUNDUP
NATIONAL WEATHER SERVICE GREAT FALLS MT
800 PM MST WED DEC 07 2016

NOTE: "FAIR" INDICATES FEW OR NO CLOUDS BELOW 12000 FEET WITH NO
SIGNIFICANT WEATHER AND/OR OBSTRUCTIONS TO VISIBILITY.

MTZ001>007-043-080400-
WEST OF THE DIVIDE

CITY           SKY/WX    TMP DP  RH WIND       PRES   REMARKS
KALISPELL      CLEAR      4  -4  69 N6        30.49R WCI  -7
MISSOULA       CLOUDY    15   5  64 N5        30.45S
BUTTE          CLOUDY     5  -2  72 S10       30.28R WCI -10
MULLAN PASS    MOCLDY     2  -1  88 SE8G16    30.17F WCI -12
ANACONDA         N/A      7   0  72 CALM      30.32S
DEER LODGE       N/A      9   0  66 CALM      30.36F
EUREKA           N/A     -8 -11  84 CALM      30.54S
HAMILTON         N/A     12   3  67 NW3       30.40S
LIBBY            N/A     12   5  73 S3        30.49S
PLAINS           N/A     13   0  56 CALM      30.47
RONAN            N/A      5  -1  76 CALM      30.43S
$$

MTZ008-052>055-080400-
SOUTHWEST MONTANA

CITY           SKY/WX    TMP DP  RH WIND       PRES   REMARKS
BOZEMAN        CLOUDY     7  -1  70 CALM      30.41S
DILLON         CLOUDY     4  -3  73 NE8       30.31R WCI  -9
W YELLOWSTONE  CLOUDY   -18 -22  83 CALM      30.23R
ENNIS          CLOUDY     1  -4  78 CALM      30.37R
THREE FORKS      N/A      7 -75   1 NW1       30.36S
$$

MTZ009-010-012-014-046-048-049-054-080400-
EAST SLOPES AND CENTRAL MONTANA

CITY           SKY/WX    TMP DP  RH WIND       PRES   REMARKS
CUT BANK       CLEAR    -11 -16  78 NW6       30.50S WCI -25
GREAT FALLS    CLOUDY     0  -6  76 CALM      30.52R
MALMSTROM AFB  CLOUDY     0  -5  79 CALM      30.55R
HELENA         CLOUDY     6  -4  63 NW3       30.47R
AUGUSTA        FLURRIES  -3  -6  84 E5        30.43S
BOWMANS CRNR   FLURRIES  -3  -7  82 NE5       30.42S
CHOTEAU          N/A      0  -8  71 MISG      30.51S
CONRAD           N/A    -11 -17  74 W2        30.48R
FAIRFIELD      FLURRIES  -1  -7  73 N1        30.49R
POWER          MOCLDY    -4  -8  79 NW5       30.50R
RAYNESFORD     CLOUDY    -3  -8  77 E1        30.49R
ULM            CLOUDY    -2  -7  80 W5G18     30.53R
$$

MTZ011-013-016-021-045-047-050-051-080400-
NORTH CENTRAL MONTANA

CITY           SKY/WX    TMP DP  RH WIND       PRES   REMARKS
HAVRE          CLEAR     -4 -10  75 W3        30.64R
LEWISTOWN      CLEAR     -8 -13  78 S3        30.46S
N BAR RANCH      N/A     -6 -15  65 W7        30.44S WCI -20
CHINOOK          N/A     -2  -9  71 W8        30.66R WCI -17
DENTON           N/A     -6 -11  79 SW15G23   30.50R WCI -27
GEYSER         MOCLDY    -3  -9  77 W8        30.46S WCI -18
GRASS RANGE      N/A     -3  -7  81 SW10      30.46R WCI -20
JUDITH GAP       N/A    -11 -16  78 N6        30.40R WCI -24
ROY              N/A     -5 -10  80 MISG      30.50R
WINIFRED         N/A     -4  -8  82 MISG      30.50S
$$

MTZ017>020-022>027-061-062-080400-
NORTHEAST MONTANA

CITY           SKY/WX    TMP DP  RH WIND       PRES   REMARKS
GLASGOW        CLEAR     -1  -9  68 W13       30.60R WCI -19
JORDAN           N/A     -1  -7  75 NW8       30.58R WCI -15
SIDNEY         CLOUDY     2  -5  72 NW22G31   30.57R WCI -20
WOLF POINT     CLOUDY     2  -7  66 W9        30.62R WCI -13
PLENTYWOOD       N/A     -4  -9  77 W14       30.52S WCI -24
POPLAR           N/A      1  -8  66 W9        30.61R WCI -14
SCOBEY           N/A     -4 -15  59 NW12      30.48  WCI -22
$$

MTZ028>42-056>058-080400-
SOUTHCENTRAL AND SOUTHEAST MONTANA

CITY           SKY/WX    TMP DP  RH WIND       PRES   REMARKS
BAKER          CLOUDY     2  -4  76 NW17G28   30.50R WCI -18
BILLINGS       PTCLDY     5  -5  63 NE7       30.50R WCI  -7
LIVINGSTON     CLOUDY     6  -3  66 CALM      30.38S
MILES CITY     CLEAR     -1  -7  75 NW8       30.59R WCI -15
BIG TIMBER     CLOUDY     3  -4  72 S8        30.43S WCI -10
EKALAKA          N/A     -3 -11  69 W12       30.37  WCI -21
FORSYTH          N/A      3  -6  66 W6        30.59R WCI  -8
LAUREL           N/A      3 -12  49 N1        30.41R
$$

REGIONAL REPORTS...DAKOTAS

CITY           SKY/WX    TMP DP  RH WIND       PRES   REMARKS
WILLISTON      CLOUDY     2  -6  69 NW17      30.56R WCI -18
MINOT          LGT SNOW   6   1  80 W33       30.40R WCI -19
DICKINSON      CLOUDY     0  -6  76 W26       30.42R WCI -25
BEACH          CLOUDY     0  -4  85 NW21      30.53R WCI -23
CROSBY         CLOUDY     3   0  85 NW23G29   30.52R FOG     WCI -19
TIOGA          LGT SNOW   1   0  92 NW26      30.46S WCI -23
WATFORD CITY   CLOUDY     1  -4  78 NW15      30.53R WCI -18
BISMARCK       MIX PCPN   4  -1  80 NW15G24   30.44R WCI -14
GRAND FORKS    CLOUDY    20  16  84 NW23G31   30.17R BLWGSNOWWCI   3
FARGO          LGT SNOW  19  14  81 NW23      30.18R WCI   2
BUFFALO SD       N/A      4  -4  69 NW22      30.39R WCI -18
RAPID CITY     CLEAR      1  -6  72 N9        30.44S WCI -14
$$

REGIONAL REPORTS...WYOMING/IDAHO/WASHINGTON

CITY           SKY/WX    TMP DP  RH WIND       PRES   REMARKS
GILLETTE       CLOUDY    -7 -10  87 W8        30.42R WCI -23
SHERIDAN       CLEAR     -4 -10  75 SW3       30.47R
BUFFALO WY     CLOUDY    -2 -10  69 CALM      30.38R
CODY           CLOUDY    -5 -11  75 S5        30.37S
YELLOWSTONE LA   N/A    -12 -16  82 NW3       30.16R
IDAHO FALLS    CLEAR     10   4  76 NE3       30.34R
SALMON         MOCLDY     5   3  92 CALM      30.34R
BOISE          CLEAR     20  13  74 SE8       30.36S WCI  10
SPOKANE        PTCLDY    22  10  60 NE9       30.41S WCI  12
$$

REGIONAL REPORTS...ALBERTA

CITY           SKY/WX    TMP DP  RH WIND       PRES   REMARKS
EDMONTON       PTCLDY    -9 -17  70 N6        30.69S WCI -23
CALGARY        MOCLDY    -8 -13  77 VRB2      30.52S
LETHBRIDGE     CLEAR    -15 -20  76 SW7       30.60R WCI -31
MEDICINE HAT   CLEAR    -13 -18  77 S5        30.66R
WATERTON GATE    N/A    -26 -33  68 CALM        N/A
CARDSTON         N/A    -20 -26  76 S1          N/A
MILK RIVER       N/A    -15 -20  76 W7          N/A  WCI -31
ONEFOUR          N/A    -11 -15  84 NW12        N/A  WCI -31
$$

REGIONAL REPORTS...SASKATCHEWAN

CITY           SKY/WX    TMP DP  RH WIND       PRES   REMARKS
SWIFT CURRENT  MOCLDY    -8 -11  84 W13       30.53R WCI -28
REGINA         CLOUDY     3  -2  78 NW17      30.53R WCI -17
SASKATOON      PTCLDY    -2  -6  84 NW9       30.62R WCI -18
CYPRESS HILLS    N/A    -11 -17  77 NW5         N/A
VAL MARIE        N/A     -6 -11  77 NW7         N/A  WCI -20
ROCKGLEN         N/A     -8 -11  84 NW15G21     N/A  WCI -29
ASSINIBOIA       N/A     -8 -13  77 NW6         N/A  WCI -21
$$



USA.gov is the U.S. government's official web portal to all federal, state and local government web resources and services.